[[{"header":{"parameterUnit":"m.s-1","parameterCategory":1,"la1":30.2991,"la2":30.254,"lo1":-89.0895,"lo2":-89.0444,"dy":0.0017,"dx":0.0017,"nx":28,"ny":28,"refTime":"2024-05-17T21:00:00:Z","depth":0,"parameterNumber":2,"parameterNumberName":"U-component_of_WINDS"},"data":[0,0,0,0,0,0,0,0,0,0,0,0,0,0,0,0,0,0,0,0,0,0,0,0,0,0,0,0,0,0,0,0,0,0,0,0,0,0,0,0,0,0,0,0,0,0,0,0,0,0,0,0,0,0,0,0,0,0,-2.5667,-2.5668,0,-2.5746,-2.5747,-2.5748,-2.5682,-2.5679,-2.5676,-2.5674,-2.5759,-2.5763,-2.5768,0,0,0,0,0,0,0,0,0,0,0,0,0,-2.5463,-2.5467,-2.5667,-2.5668,-2.5669,-2.5746,-2.5747,-2.5748,-2.5682,-2.5679,-2.5676,-2.5673,-2.5757,-2.5763,-2.5769,0,0,0,0,0,0,0,0,0,0,0,0,0,-2.5548,-2.5468,-2.5667,-2.5645,-2.5644,-2.5746,-2.5747,-2.5748,-2.5683,-2.5679,-2.5675,-2.5671,-2.5755,-2.5762,-2.5769,-2.5897,0,0,-2.5792,-2.5795,0,0,0,0,0,0,0,0,-2.5543,-2.5555,-2.5647,-2.5647,-2.5646,-2.57,-2.5706,-2.5799,-2.5684,-2.5669,-2.5674,-2.5669,-2.5743,-2.5751,-2.5775,-2.5901,-2.5905,-2.5792,-2.5797,-2.58,-2.5802,0,0,0,0,0,0,0,-2.5537,-2.5551,-2.5698,-2.5649,-2.5648,-2.5633,-2.564,-2.5723,-2.5728,-2.567,-2.5665,-2.5675,-2.5741,-2.5768,-2.5776,-2.5906,-2.5792,-2.5798,-2.5803,-2.5806,-2.6141,-2.6145,0,0,0,0,0,0,-2.5533,-2.5547,-2.5696,-2.5701,-2.5583,-2.564,-2.5648,-2.5687,-2.5727,-2.5729,-2.5679,-2.5672,-2.5758,-2.5768,-2.5779,-2.593,-2.58,-2.5806,-2.5811,-2.6137,-2.6142,-2.6147,0,0,0,0,0,0,-2.5529,-2.5547,-2.5693,-2.5623,-2.564,-2.5648,-2.5692,-2.5691,-2.5717,-2.5734,-2.5735,-2.5704,-2.5755,-2.5769,-2.5868,-2.5932,-2.581,-2.5816,-2.6131,-2.6138,-2.6144,-2.6234,0,0,0,0,0,0,-2.5523,-2.5546,-2.5593,-2.5624,-2.5644,-2.5779,-2.5696,-2.5695,-2.5729,-2.5721,-2.5758,-2.576,-2.5753,-2.5857,-2.5875,-2.594,-2.5822,-2.6125,-2.6134,-2.6142,-2.6225,-2.6243,-2.6258,0,0,0,0,0,-2.5516,-2.5616,-2.5596,-2.5614,-2.5704,-2.5783,-2.5794,-2.5782,-2.5735,-2.5783,-2.5794,-2.5759,-2.5923,-2.5868,-2.5888,-2.5955,-2.6121,-2.6132,-2.6142,-2.6217,-2.6239,-2.6257,0,0,0,0,0,0,-2.5594,-2.562,-2.5598,-2.5711,-2.5745,-2.5772,-2.5832,-2.5806,-2.5855,-2.5846,-2.583,-2.5839,-2.5943,-2.596,-2.5898,-2.6081,-2.6014,-2.6029,-2.6065,-2.6086,-2.6102,-2.6095,-2.5828,0,0,0,0,0,-2.5624,-2.5685,-2.5705,-2.5803,-2.5821,-2.5824,-2.5858,-2.5846,-2.5881,-2.5896,-2.5914,-2.5951,-2.601,-2.605,-2.6106,-2.6228,-2.6235,-2.6285,-2.6301,-2.6314,-2.6326,-2.6391,-2.6413,-2.6181,-2.618,-2.618,0,0,-2.5687,-2.5709,-2.5749,-2.5819,-2.5844,-2.5908,-2.5837,-2.5908,-2.5956,-2.5907,-2.6,-2.6016,-2.6056,-2.6167,-2.6217,-2.6184,-2.6393,-2.6327,-2.6338,-2.6343,-2.6404,-2.6426,-2.6446,-2.6188,-2.6186,-2.6185,0,0,-2.5834,-2.5858,-2.594,-2.5967,-2.6005,-2.6007,-2.6027,-2.6058,-2.6066,-2.616,-2.6124,-2.6182,-2.6285,-2.6314,-2.6343,-2.6503,-2.6472,-2.6522,-2.6606,-2.667,-2.6688,-2.6704,-2.6759,-2.678,-2.6534,-2.6535,-2.6535,0,-2.5907,-2.6001,-2.5987,-2.606,-2.6092,-2.6051,-2.6135,-2.6162,-2.6218,-2.6241,-2.6204,-2.6332,-2.6357,-2.6473,-2.6512,-2.6537,-2.656,-2.6516,-2.6687,-2.6703,-2.6718,-2.677,-2.6791,-2.654,-2.654,-2.6539,-2.6539,0,-2.6089,-2.6155,-2.6218,-2.6271,-2.631,-2.6389,-2.6387,-2.643,-2.6415,-2.6421,-2.6517,-2.6545,-2.6605,-2.6633,-2.662,-2.6748,-2.6726,-2.6689,-2.6621,-2.6745,-2.6794,-2.6814,-2.6548,-2.6546,-2.6545,-2.6543,0,0,-2.6284,-2.6329,-2.6352,-2.6375,-2.6415,-2.6466,-2.6544,-2.6602,-2.6637,-2.6679,-2.6742,-2.6831,-2.6796,-2.6829,-2.682,-2.6876,-2.6998,-2.6831,-2.6832,-2.6859,-2.714,-2.7165,-2.7189,-2.698,-2.6984,-2.6987,-2.7135,0,-2.6431,-2.6563,-2.6553,-2.6679,-2.6739,-2.6702,-2.6769,-2.6802,-2.681,-2.6864,-2.6874,-2.6936,-2.6886,-2.6905,-2.696,-2.6972,-2.7054,-2.6961,-2.7039,-2.7042,-2.7026,-2.7215,-2.7242,-2.7381,-2.7155,-2.7158,-2.716,0,-2.6619,-2.6664,-2.6795,-2.6825,-2.685,-2.6911,-2.6963,-2.7015,-2.7052,-2.7054,-2.7091,-2.7072,-2.7151,-2.7084,-2.7193,-2.713,-2.7162,-2.7173,-2.7178,-2.7182,-2.7106,-2.7222,-2.7425,-2.7445,-2.7191,-2.7188,-2.7186,0,-2.6745,-2.6839,-2.6929,-2.6951,-2.6989,-2.7033,-2.7051,-2.7084,-2.7119,-2.7166,-2.7188,-2.7244,-2.7274,-2.7319,-2.7316,-2.7268,-2.7426,-2.7359,-2.7429,-2.7429,-2.7462,-2.7459,-2.767,-2.7487,-2.7487,-2.7487,-2.7486,0,-2.6907,-2.6989,-2.6986,-2.7041,-2.7131,-2.712,-2.721,-2.7224,-2.7254,-2.7312,-2.7285,-2.734,-2.7334,-2.739,-2.7389,-2.7479,-2.7494,-2.7497,-2.7495,-2.7498,-2.7497,-2.7516,-2.7505,-2.7492,-2.7491,-2.749,-2.7489,0,-2.7062,-2.7064,-2.7159,-2.7188,-2.7197,-2.7262,-2.7287,-2.734,-2.7347,-2.742,-2.7437,-2.7448,-2.7513,-2.7515,-2.759,-2.7589,-2.7698,-2.7687,-2.7684,-2.7681,-2.775,-2.7743,-2.7979,-2.8009,-2.7809,-2.7811,-2.7813,0,-2.7164,-2.7225,-2.726,-2.7296,-2.7317,-2.7376,-2.7412,-2.7404,-2.7442,-2.7489,-2.7537,-2.7599,-2.7647,-2.7753,-2.7768,-2.7826,-2.7814,-2.7893,-2.7822,-2.7823,-2.7812,-2.7807,-2.7813,-2.7906,-2.7908,-2.791,-2.7911,0,-2.7344,-2.7342,-2.7393,-2.7446,-2.7488,-2.753,-2.7568,-2.76,-2.7597,-2.7642,-2.7706,-2.7744,-2.7821,-2.7882,-2.7938,-2.7958,-2.7935,-2.7934,-2.7953,-2.7954,-2.7949,-2.795,-2.7719,-2.7928,-2.7926,-2.7925,-2.7924,-2.7923,-2.7474,-2.7526,-2.7558,-2.7617,-2.7645,-2.7681,-2.7731,-2.7744,-2.7798,-2.7857,-2.7851,-2.7923,-2.796,-2.8032,-2.8057,-2.8114,-2.8087,-2.8115,-2.8121,-2.8128,-2.8134,-2.7943,-2.8125,-2.8124,-2.8124,-2.8124,-2.8123,0,-2.765,-2.7669,-2.7723,-2.7777,-2.7823,-2.7796,-2.7838,-2.7878,-2.7941,-2.7977,-2.8025,-2.81,-2.816,-2.8181,-2.8239,-2.8281,-2.8271,-2.8296,-2.8292,-2.8296,-2.8156,-2.8132,-2.8303,-2.8303,-2.8303,-2.8303,-2.8303,-2.8303,-2.7747,-2.7833,-2.7835,-2.7936,-2.7955,-2.8024,-2.805,-2.8083,-2.8111,-2.8195,-2.8244,-2.8257,-2.8287,-2.8347,-2.8402,-2.8406,-2.8428,-2.8457,-2.8457,-2.8325,-2.8307,-2.8289,-2.8267,-2.8463,-2.8463,-2.8592,-2.8594,-2.8594]},{"header":{"parameterUnit":"m.s-1","parameterCategory":1,"la1":30.2991,"la2":30.254,"lo1":-89.0895,"lo2":-89.0444,"dy":0.0017,"dx":0.0017,"nx":28,"ny":28,"refTime":"2024-05-17T21:00:00:Z","depth":0,"parameterNumber":3,"parameterNumberName":"V-component_of_WINDS"},"data":[0,0,0,0,0,0,0,0,0,0,0,0,0,0,0,0,0,0,0,0,0,0,0,0,0,0,0,0,0,0,0,0,0,0,0,0,0,0,0,0,0,0,0,0,0,0,0,0,0,0,0,0,0,0,0,0,0,0,3.2168,3.2168,0,3.2189,3.2189,3.219,3.2208,3.2208,3.2209,3.2209,3.2227,3.2227,3.2227,0,0,0,0,0,0,0,0,0,0,0,0,0,3.2141,3.2141,3.2168,3.2168,3.2168,3.2189,3.2189,3.219,3.2208,3.2208,3.2209,3.2209,3.2227,3.2227,3.2227,0,0,0,0,0,0,0,0,0,0,0,0,0,3.2156,3.2141,3.2167,3.218,3.2181,3.2189,3.2189,3.219,3.2208,3.2208,3.2209,3.2209,3.2227,3.2227,3.2227,3.2223,0,0,3.2229,3.2229,0,0,0,0,0,0,0,0,3.2155,3.2157,3.2178,3.2179,3.2181,3.2196,3.2187,3.2201,3.2208,3.2198,3.2209,3.2209,3.2216,3.2217,3.2221,3.2224,3.2225,3.2229,3.2229,3.2229,3.2229,0,0,0,0,0,0,0,3.2154,3.2156,3.2176,3.2178,3.218,3.2184,3.2187,3.2189,3.2205,3.2199,3.22,3.2203,3.2217,3.222,3.2221,3.2225,3.2229,3.2229,3.2229,3.2229,3.223,3.223,0,0,0,0,0,0,3.2152,3.2155,3.2175,3.2177,3.2169,3.2184,3.2187,3.2191,3.2205,3.2207,3.2202,3.2203,3.2219,3.2221,3.2222,3.222,3.2229,3.223,3.223,3.223,3.223,3.223,0,0,0,0,0,0,3.2151,3.2153,3.2174,3.2167,3.217,3.2184,3.2189,3.2191,3.2195,3.2208,3.221,3.2203,3.222,3.2221,3.2224,3.2221,3.223,3.223,3.2231,3.223,3.223,3.2216,0,0,0,0,0,0,3.215,3.2153,3.2152,3.2166,3.217,3.2176,3.2188,3.2191,3.2196,3.2197,3.2209,3.2211,3.222,3.2223,3.2224,3.2222,3.223,3.2231,3.2231,3.223,3.2216,3.2215,3.2213,0,0,0,0,0,3.2149,3.2145,3.2151,3.2154,3.2169,3.2176,3.2178,3.219,3.2195,3.2194,3.2203,3.2211,3.2221,3.2223,3.2225,3.2222,3.2231,3.2231,3.223,3.2217,3.2215,3.2214,0,0,0,0,0,0,3.2127,3.2147,3.2154,3.2155,3.2164,3.2179,3.2178,3.2187,3.2193,3.2194,3.2207,3.221,3.2212,3.2217,3.2219,3.2221,3.2227,3.2227,3.2217,3.2215,3.2214,3.2212,3.2231,0,0,0,0,0,3.2123,3.2128,3.2145,3.2144,3.2148,3.2163,3.2166,3.2175,3.2184,3.2187,3.2196,3.2204,3.221,3.2213,3.2218,3.2218,3.2221,3.2217,3.2215,3.2214,3.2214,3.2216,3.2215,3.2228,3.2228,3.2228,0,0,3.2113,3.2125,3.2126,3.214,3.2148,3.2153,3.2165,3.2169,3.2173,3.2187,3.2192,3.2199,3.2208,3.221,3.2211,3.2215,3.2211,3.2214,3.2212,3.2213,3.2216,3.2214,3.2213,3.2228,3.2228,3.2228,0,0,3.2098,3.2107,3.2108,3.2117,3.213,3.214,3.2141,3.2156,3.2162,3.2166,3.2178,3.2183,3.2191,3.2199,3.2204,3.2196,3.2203,3.2197,3.2189,3.2192,3.2191,3.219,3.2188,3.2188,3.2197,3.2197,3.2197,0,3.2083,3.2092,3.2107,3.2112,3.2118,3.2134,3.2136,3.2143,3.2157,3.2161,3.2165,3.2179,3.2186,3.2191,3.219,3.2193,3.2194,3.2195,3.219,3.2189,3.2188,3.2187,3.2187,3.2196,3.2196,3.2196,3.2196,0,3.2075,3.2081,3.2081,3.2097,3.2103,3.2105,3.2121,3.2126,3.2135,3.2145,3.2151,3.2161,3.217,3.2172,3.2179,3.2179,3.2181,3.2187,3.2194,3.2186,3.2185,3.2185,3.2195,3.2195,3.2195,3.2195,0,0,3.2044,3.2071,3.207,3.2079,3.2096,3.2101,3.2106,3.2117,3.2122,3.2131,3.2136,3.2145,3.2152,3.2158,3.2167,3.2169,3.2164,3.2175,3.2176,3.2174,3.2167,3.2162,3.2161,3.217,3.217,3.217,3.2166,0,3.2032,3.2043,3.2058,3.2064,3.2071,3.2088,3.2092,3.2103,3.2113,3.2121,3.2131,3.2138,3.2146,3.215,3.2153,3.2164,3.2163,3.2165,3.2175,3.2175,3.2172,3.2161,3.2155,3.2151,3.2166,3.2166,3.2166,0,3.2019,3.2031,3.2038,3.2058,3.2061,3.2065,3.2078,3.2085,3.2099,3.2106,3.2115,3.2125,3.2132,3.2139,3.2149,3.215,3.2155,3.2161,3.2161,3.2163,3.217,3.2162,3.215,3.2149,3.2165,3.2165,3.2165,0,3.1998,3.2015,3.2022,3.2029,3.2052,3.2054,3.2064,3.2078,3.2085,3.2096,3.2101,3.2113,3.2119,3.2127,3.2141,3.2145,3.215,3.2158,3.2157,3.2157,3.2157,3.2157,3.2145,3.216,3.216,3.216,3.216,0,3.1983,3.1987,3.2013,3.2017,3.2023,3.2041,3.2046,3.2057,3.207,3.2077,3.2092,3.2098,3.2116,3.2125,3.2136,3.2143,3.2145,3.2152,3.2155,3.2151,3.215,3.2154,3.2155,3.2159,3.2159,3.2159,3.216,0,3.1959,3.1977,3.1986,3.2009,3.2015,3.2018,3.2037,3.2042,3.2055,3.2063,3.2067,3.2086,3.2097,3.2112,3.2127,3.2135,3.2141,3.2145,3.2137,3.2139,3.2138,3.2138,3.2129,3.213,3.2143,3.2142,3.2142,0,3.1949,3.1953,3.1977,3.1984,3.1993,3.2003,3.2012,3.2031,3.2038,3.2057,3.206,3.2073,3.2084,3.2101,3.2116,3.2128,3.2134,3.213,3.2135,3.2132,3.2135,3.2135,3.2136,3.2128,3.2128,3.2128,3.2127,0,3.1929,3.1939,3.195,3.1966,3.1976,3.1989,3.2002,3.2007,3.2028,3.2037,3.205,3.2059,3.2076,3.2089,3.2104,3.2114,3.2125,3.2126,3.2127,3.2123,3.2118,3.2122,3.2134,3.2126,3.2126,3.2126,3.2126,3.2126,3.1912,3.1917,3.1936,3.195,3.1963,3.1976,3.1983,3.1998,3.2009,3.2026,3.2037,3.205,3.2066,3.2088,3.2098,3.2108,3.2112,3.2113,3.2113,3.2113,3.2112,3.2117,3.2111,3.2111,3.2111,3.2111,3.2111,0,3.1894,3.1908,3.192,3.194,3.1951,3.1963,3.1979,3.1988,3.1999,3.2015,3.2027,3.2043,3.2057,3.2074,3.2089,3.2095,3.21,3.2098,3.2098,3.21,3.2107,3.2106,3.2093,3.2093,3.2093,3.2093,3.2093,3.2093,3.1886,3.1896,3.1909,3.1926,3.194,3.1955,3.1963,3.1976,3.1989,3.2007,3.2019,3.2031,3.2048,3.2065,3.2079,3.2084,3.2089,3.2085,3.2092,3.2098,3.2099,3.2101,3.21,3.2086,3.2086,3.2084,3.2084,3.2084]}]]